FW1212 Weather Reports


time (UTC)temp
F
wind
direction
speed
knots
gust
knots
rain 1hr
in
rain 24hr
in
rain mn
in
humidity
%
barometer
mb
20260506163101 77 104 1.7 6.1 0.00 0.00 0.00 36 1009.2
20260506161547 78 60 3.5 7.0 0.00 0.00 0.00 33 1009.2
20260506160046 78 117 3.5 7.8 0.00 0.00 0.00 32 1009.2
20260506154550 79 83 2.6 7.8 0.00 0.00 0.00 32 1009.2
20260506153047 79 122 3.5 10.4 0.00 0.00 0.00 31 1009.3
20260506151544 79 95 4.3 9.6 0.00 0.00 0.00 32 1009.2
20260506150042 80 74 2.6 8.7 0.00 0.00 0.00 32 1009.4
20260506144544 80 101 5.2 9.6 0.00 0.00 0.00 30 1009.3
20260506143041 80 81 2.6 9.6 0.00 0.00 0.00 30 1009.4
20260506141539 81 144 2.6 8.7 0.00 0.00 0.00 29 1009.4
20260506140049 81 152 2.6 8.7 0.00 0.00 0.00 28 1009.4
20260506134537 81 45 4.3 8.7 0.00 0.00 0.00 30 1009.5
20260506133037 80 75 4.3 12.2 0.00 0.00 0.00 29 1009.5
20260506131535 81 77 5.2 8.7 0.00 0.00 0.00 30 1009.6
20260506130035 81 360 4.3 11.3 0.00 0.00 0.00 31 1009.7
20260506124532 81 65 1.7 7.0 0.00 0.00 0.00 29 1009.8
20260506123031 80 120 2.6 11.3 0.00 0.00 0.00 32 1009.9
20260506121530 81 127 2.6 9.6 0.00 0.00 0.00 32 1010.1
20260506120032 81 125 4.3 8.7 0.00 0.00 0.00 32 1010.3
20260506114527 80 62 1.7 8.7 0.00 0.00 0.00 32 1010.4
20260506113024 80 164 2.6 9.6 0.00 0.00 0.00 32 1010.5
20260506111527 79 76 2.6 8.7 0.00 0.00 0.00 31 1010.6
20260506110021 79 156 4.3 8.7 0.00 0.00 0.00 35 1010.8
20260506104518 78 156 4.3 8.7 0.00 0.00 0.00 35 1010.9
20260506103020 78 162 5.2 9.6 0.00 0.00 0.00 35 1011.0
20260506101513 77 172 3.5 12.2 0.00 0.00 0.00 36 1011.0
20260506100013 78 140 4.3 8.7 0.00 0.00 0.00 36 1011.1
20260506094513 77 99 2.6 10.4 0.00 0.00 0.00 38 1011.1
20260506093013 76 123 5.2 8.7 0.00 0.00 0.00 39 1011.2
20260506091508 76 86 5.2 7.8 0.00 0.00 0.00 41 1011.2
20260506090003 74 92 4.3 10.4 0.00 0.00 0.00 42 1011.3
20260506084503 74 151 3.5 9.6 0.00 0.00 0.00 43 1011.3
20260506083058 73 169 3.5 7.8 0.00 0.00 0.00 46 1011.3
20260506081554 71 85 5.2 10.4 0.00 0.00 0.00 47 1011.3
20260506073045 67 77 4.3 8.7 0.00 0.00 0.00 54 1011.5
20260506071542 66 88 3.5 7.0 0.00 0.00 0.00 56 1011.4
20260506061537 62 142 4.3 9.6 0.00 0.00 0.00 60 1011.4
20260506044516 55 319 0.0 1.7 0.00 0.00 0.00 71 1011.4
20260506043012 52 296 0.0 0.9 0.00 0.00 0.00 75 1011.4
20260506041511 50 296 0.0 1.7 0.00 0.00 0.00 77 1011.3
20260506040011 47 289 0.0 1.7 0.00 0.00 0.00 80 1011.3
20260506034509 46 284 0.0 0.9 0.00 0.00 0.00 81 1011.2
20260506033006 44 284 0.0 1.7 0.00 0.00 0.00 81 1011.0
20260506031505 43 284 0.9 1.7 0.00 0.00 0.00 81 1010.9
20260506030002 43 284 0.0 1.7 0.00 0.00 0.00 81 1010.9
20260506024613 44 284 0.0 1.7 0.00 0.00 0.00 81 1010.7
20260506023058 44 284 0.0 0.0 0.00 0.00 0.00 80 1010.6
20260506021555 45 284 0.0 0.0 0.00 0.00 0.00 80 1010.6
20260506020118 45 285 0.0 0.9 0.00 0.00 0.00 81 1010.6
20260506014551 45 285 0.0 1.7 0.00 0.00 0.00 79 1010.5
20260506013049 46 285 0.9 2.6 0.00 0.00 0.00 79 1010.5
20260506011549 47 283 0.0 0.9 0.00 0.00 0.00 78 1010.4
20260506010043 48 278 0.0 1.7 0.00 0.00 0.00 78 1010.4
20260506004544 48 278 0.0 0.0 0.00 0.00 0.00 77 1010.3
20260506003040 48 278 0.0 2.6 0.00 0.00 0.00 77 1010.3
20260506001544 49 275 0.0 0.0 0.00 0.00 0.00 76 1010.2
20260506000053 50 275 0.0 0.0 0.00 0.00 0.00 75 1010.1
20260505234536 51 275 0.0 1.7 0.00 0.00 0.00 74 1010.0
20260505233032 52 277 0.0 0.9 0.00 0.00 0.00 70 1010.1
20260505231530 52 280 0.9 1.7 0.00 0.00 0.00 71 1010.1
20260505230039 54 279 0.9 2.6 0.00 0.00 0.00 70 1010.1
20260505224524 55 269 0.0 0.9 0.00 0.00 0.00 64 1010.2
20260505223022 55 269 0.9 1.7 0.00 0.00 0.00 65 1010.2
20260505221521 55 269 0.9 1.7 0.00 0.00 0.00 66 1010.1
20260505220021 55 269 0.0 0.0 0.00 0.00 0.00 66 1010.1
20260505214519 55 269 0.0 1.7 0.00 0.00 0.00 68 1010.1
20260505213016 56 261 0.0 1.7 0.00 0.00 0.00 65 1010.0
20260505211523 56 254 0.0 0.0 0.00 0.00 0.00 64 1010.0
20260505210012 56 254 0.0 0.0 0.00 0.00 0.00 65 1009.9
20260505204511 55 277 0.0 1.7 0.00 0.00 0.00 69 1009.9
20260505203015 55 277 0.9 2.6 0.00 0.00 0.00 73 1009.8
20260505201510 55 276 0.0 1.7 0.00 0.00 0.00 73 1009.7
20260505200010 56 130 0.0 1.7 0.00 0.00 0.00 70 1009.5
20260505194509 56 204 0.0 0.0 0.00 0.00 0.00 68 1009.4
20260505193010 57 191 0.0 0.0 0.00 0.00 0.00 69 1009.2
20260505191513 58 186 0.0 0.9 0.00 0.00 0.00 69 1009.2
20260505190007 60 182 0.0 0.0 0.00 0.00 0.00 67 1009.3
20260505184507 62 177 0.0 0.0 0.00 0.00 0.00 65 1009.1
20260505183012 64 176 0.0 0.0 0.00 0.00 0.00 59 1009.1
20260505181505 66 176 0.0 0.0 0.00 0.00 0.00 55 1009.0
20260505180005 68 176 0.0 0.0 0.00 0.00 0.00 49 1009.0
20260505174505 70 176 0.0 0.0 0.00 0.00 0.00 44 1008.9
20260505173004 72 176 0.0 0.0 0.00 0.00 0.00 39 1008.8
20260505171503 74 175 0.0 1.7 0.00 0.00 0.00 38 1008.7
20260505170003 75 175 0.0 1.7 0.00 0.00 0.00 35 1008.7
20260505164505 77 175 0.0 2.6 0.00 0.00 0.00 32 1008.7